Lancaster, OH

10:34 PM EST on December 05, 2016 (GMT -0500)
Fairfield County

Weather History for KLHQ - November, 2012

Change the Weather History Date:

Wednesday, November 28, 2012

  Actual Average Record
Temperature  
Mean Temperature 30 °F -  
Max Temperature 41 °F 49 °F 77 °F (1990)
Min Temperature 19 °F 32 °F 8 °F (1955)
Degree Days  
Heating Degree Days 35    
Moisture  
Dew Point 19 °F    
Average Humidity 71    
Maximum Humidity 88    
Minimum Humidity 41    
Precipitation  
Precipitation 0.00 in - - ()
Sea Level Pressure  
Sea Level Pressure 30.38 in    
Wind  
Wind Speed 2 mph (West)    
Max Wind Speed 13 mph    
Max Gust Speed 18 mph    
Visibility 8 miles    
Events      
Averages and records for this station are not official NWS values.
T = Trace of Precipitation, MM = Missing Value Source: NWS Daily Summary

Daily Weather History Graph

Daily Weather History Graph

Search for Another Location

Airport or City:

Trip Planner

Search our weather history database for the weather conditions in past years. The results will help you decide how hot, cold, wet, or windy it might be!

Date:

Astronomy

Nov. 28, 2012 Rise Set
Actual Time 7:30 AM EST 5:07 PM EST
Civil Twilight 7:00 AM EST 5:37 PM EST
Nautical Twilight 6:26 AM EST 6:10 PM EST
Astronomical Twilight 5:54 AM EST 6:42 PM EST
Moon 5:21 PM EST (11/28) 7:26 AM EST (11/28)
Length of Visible Light 10h 36m
Length of Day
9h 37m
Full, 100% of the Moon is Illuminated
Nov 28
Full
Dec 6
Last Quarter
Dec 13
New
Dec 20
First Quarter
Dec 28
Full

Hourly Weather History & Observations

Time (EST) Temp. Windchill Dew Point Humidity Pressure Visibility Wind Dir Wind Speed Gust Speed Precip Events Conditions
12:53 AM 21.0 °F - 17.1 °F 85% 30.32 in 7.0 mi Calm Calm - N/A   Mostly Cloudy
1:53 AM 19.9 °F - 15.1 °F 81% 30.32 in 7.0 mi Calm Calm - N/A   Clear
2:53 AM 19.0 °F - 16.0 °F 88% 30.34 in 7.0 mi Calm Calm - N/A   Clear
3:53 AM 19.0 °F - 15.1 °F 85% 30.34 in 6.0 mi Calm Calm - N/A   Clear
4:53 AM 19.0 °F - 15.1 °F 85% 30.34 in 6.0 mi Calm Calm - N/A   Clear
5:53 AM 19.0 °F - 14.0 °F 81% 30.35 in 6.0 mi Calm Calm - N/A   Haze
6:53 AM 21.0 °F - 17.1 °F 85% 30.37 in 6.0 mi Calm Calm - N/A   Mostly Cloudy
7:53 AM 19.9 °F 14.9 °F 16.0 °F 85% 30.39 in 4.0 mi SSW 3.5 mph - N/A   Mostly Cloudy
8:53 AM 28.9 °F 25.2 °F 23.0 °F 78% 30.39 in 6.0 mi Variable 3.5 mph - N/A   Haze
9:53 AM 32.0 °F 24.2 °F 24.1 °F 73% 30.41 in 6.0 mi WSW 9.2 mph - N/A   Haze
10:53 AM 35.1 °F 27.9 °F 24.1 °F 64% 30.42 in 7.0 mi West 9.2 mph - N/A   Clear
11:53 AM 37.9 °F 32.7 °F 24.1 °F 57% 30.41 in 8.0 mi West 6.9 mph - N/A   Clear
12:53 PM 39.9 °F 32.9 °F 21.0 °F 47% 30.39 in 10.0 mi West 11.5 mph - N/A   Clear
1:53 PM 41.0 °F 33.9 °F 19.0 °F 41% 30.38 in 10.0 mi WNW 12.7 mph 18.4 mph N/A   Clear
2:53 PM 41.0 °F 35.2 °F 19.9 °F 43% 30.37 in 10.0 mi West 9.2 mph - N/A   Clear
3:53 PM 41.0 °F 37.1 °F 19.9 °F 43% 30.36 in 10.0 mi West 5.8 mph - N/A   Clear
4:53 PM 37.0 °F 32.4 °F 21.0 °F 52% 30.38 in 10.0 mi West 5.8 mph - N/A   Clear
5:53 PM 35.1 °F 32.2 °F 19.9 °F 54% 30.39 in 10.0 mi West 3.5 mph - N/A   Clear
6:53 PM 28.9 °F - 19.9 °F 69% 30.40 in 10.0 mi Calm Calm - N/A   Clear
7:53 PM 25.0 °F - 19.0 °F 78% 30.42 in 9.0 mi Calm Calm - N/A   Clear
8:53 PM 21.9 °F 17.2 °F 18.0 °F 85% 30.42 in 9.0 mi ESE 3.5 mph - N/A   Clear
9:53 PM 21.9 °F - 17.1 °F 82% 30.42 in 8.0 mi Calm Calm - N/A   Clear
10:53 PM 21.0 °F - 16.0 °F 81% 30.42 in 8.0 mi Calm Calm - N/A   Clear
11:53 PM 19.9 °F - 16.0 °F 85% 30.42 in 7.0 mi Calm Calm - N/A   Clear